Home > Weather > Atascadero > Past weeks

Flag for U.S.A. Weather for the Past 2 Weeks in Atascadero, California, U.S.A.

Now
33 °F

Fog.


Feels Like: 33 °F
Forecast: 40 / 67 °F
Wind: No wind

Location: Paso Robles Municipal Airport

Current Time: Feb 6, 2016 at 8:11:52 AM

Latest Report: Feb 6, 2016 at 6:53 AM


Visibility: 6 mi

Pressure: 30.41 "Hg

Humidity: 92%

Dew point: 31 °F

Location of AtascaderoLocation

Historic Weather in Atascadero — Graph

°F

Atascadero Temperature Yesterday

Maximum temperature yesterday: 66 °F (at 1:53 PM)
Minimum temperature yesterday: 31 °F (at 7:01 AM)
Average temperature yesterday: 46 °F

High & Low Weather Summary for the Past Weeks

 TemperatureHumidityPressure
High67 °F (Jan 29, 3:53 PM)100% (Jan 25, 6:53 AM)30.44 "Hg (Jan 25, 6:53 AM)
Low30 °F (Feb 2, 3:53 AM)37% (Jan 28, 2:53 PM)29.71 "Hg (Jan 31, 7:53 AM)
Average48 °F79%30.20 "Hg
* Reported Jan 22 6:53 AM — Feb 6 6:53 AM, Atascadero, Weather by CustomWeather, © 2016

Note: Actual official high and low records may vary slightly from our data, if they occured in-between our weather recording intervals... More about our weather records

Advertising

Atascadero Weather History for the Previous 24 Hours

 ConditionsComfort  
Time TempWeatherWind HumidityBarometerVisibility
6:53 AM
Sat, Feb 6
33 °FFog.No wind92%30.41 "Hg6 mi
5:53 AM34 °FClear.No wind88%30.39 "Hg8 mi
4:53 AM34 °FClear.No wind92%30.39 "Hg9 mi
3:53 AM37 °FFog.No wind93%30.37 "Hg6 mi
2:53 AM37 °FFog.3 mph93%30.38 "Hg6 mi
1:53 AM37 °FFog.3 mph93%30.39 "Hg6 mi
12:53 AM37 °FFog.3 mph93%30.41 "Hg6 mi
11:53 PM
Fri, Feb 5
39 °FClear.No wind93%30.42 "Hg8 mi
10:53 PM42 °FClear.No wind85%30.41 "Hg10 mi
9:53 PM43 °FClear.7 mph86%30.39 "Hg9 mi
8:53 PM45 °FClear.5 mph80%30.39 "Hg9 mi
7:53 PM49 °FClear.8 mph74%30.36 "Hg10 mi
6:53 PM52 °FClear.3 mph66%30.36 "Hg10 mi
5:53 PM56 °FClear.13 mph62%30.33 "Hg10 mi
4:53 PM59 °FSunny.16 mph54%30.32 "Hg10 mi
3:53 PM63 °FSunny.13 mph41%30.32 "Hg10 mi
2:53 PM66 °FSunny.14 mph40%30.32 "Hg10 mi
1:53 PM66 °FSunny.7 mph40%30.35 "Hg10 mi
12:53 PM63 °FSunny.9 mph45%30.36 "Hg10 mi
11:53 AM59 °FSunny.7 mph60%30.39 "Hg10 mi
10:53 AM52 °FSunny.5 mph72%30.42 "Hg10 mi
9:53 AM46 °FSunny.6 mph79%30.42 "Hg10 mi
8:53 AM41 °FFog.No wind86%30.43 "Hg5 mi
Weather by CustomWeather, © 2016

See weather overviewHow to use our weather pages